{"data":{"norad_id":50494,"intl_designator":"2021-132AB","name":"ONEWEB-0419","alt_names":[],"object_type":"PAYLOAD","status":"ACTIVE","operator":null,"country":"UK","launch_date":"2021-12-27","launch_site_code":"TYMSC","launch_vehicle":null,"mission":null,"orbit_class":"UNKNOWN","rcs_meters":null,"size_class":null,"mass_kg":null,"dimensions":null,"purposes":["comms"],"wikipedia_slug":null,"has_3d_model":false,"image_url":null,"decayed_at":null,"tle_current":{"epoch":"2026-09-19T22:03:42.573600Z","epoch_age_seconds":76062,"freshness":"FRESH","line1":"1 50494U 21132AB  26262.91924275  .00000053  00000+0  10298-3 0  9998","line2":"2 50494  87.9167 316.6460 0001826 105.8929 254.2403 13.17085772234065","mean_motion":13.17085772,"eccentricity":0.0001826,"inclination_deg":87.9167,"raan_deg":316.646,"arg_perigee_deg":105.8929,"mean_anomaly_deg":254.2403,"bstar":0.00010298,"rev_number":23406,"period_min":109.3322872825,"perigee_km":1194.4887356037,"apogee_km":1197.2547635991,"semimajor_km":7574.0087496014,"source":"CELESTRAK","updated_at":"2026-09-20T09:00:44.705134Z"}}}